Time,TemperatureF,DewpointF,PressureIn,WindDirection,WindDirectionDegrees,WindSpeedMPH,WindSpeedGustMPH,Humidity,HourlyPrecipIn,Conditions,Clouds,dailyrainin,SoftwareType,DateUTC
2013-07-29 00:12:00,56.0,-99.9,-100.00,SSE,162,0.0,2.0,-999,0.00,,,0.00,,2013-07-29 05:12:00,
2013-07-29 00:22:00,56.0,-99.9,-100.00,SSE,162,0.0,2.0,-999,0.00,,,0.00,,2013-07-29 05:22:00,
2013-07-29 00:43:00,56.0,-99.9,-100.00,South,169,0.0,0.0,-999,0.00,,,0.00,,2013-07-29 05:43:00,
2013-07-29 00:53:00,56.0,-99.9,-100.00,South,169,0.0,0.0,-999,0.00,,,0.00,,2013-07-29 05:53:00,
2013-07-29 01:02:00,56.0,-99.9,-100.00,South,173,0.0,1.0,-999,0.00,,,0.00,,2013-07-29 06:02:00,
2013-07-29 01:12:00,56.0,-99.9,-100.00,South,173,0.0,1.0,-999,0.00,,,0.00,,2013-07-29 06:12:00,
2013-07-29 01:22:00,56.0,-99.9,-100.00,South,173,0.0,1.0,-999,0.00,,,0.00,,2013-07-29 06:22:00,
2013-07-29 01:43:00,56.0,-99.9,-100.00,South,172,0.0,0.0,-999,0.00,,,0.00,,2013-07-29 06:43:00,
2013-07-29 01:53:00,56.0,-99.9,-100.00,South,172,0.0,0.0,-999,0.00,,,0.00,,2013-07-29 06:53:00,
2013-07-29 02:13:00,55.0,-99.9,-100.00,SSE,166,0.0,0.0,-999,0.00,,,0.00,,2013-07-29 07:13:00,
2013-07-29 02:23:00,55.0,-99.9,-100.00,SSE,166,0.0,0.0,-999,0.00,,,0.00,,2013-07-29 07:23:00,
2013-07-29 02:43:00,60.0,-99.9,-100.00,NW,322,3.0,4.0,-999,0.00,,,0.00,,2013-07-29 07:43:00,
2013-07-29 02:53:00,60.0,-99.9,-100.00,NW,322,3.0,4.0,-999,0.00,,,0.00,,2013-07-29 07:53:00,
2013-07-29 03:12:00,55.0,-99.9,-100.00,SSE,168,0.0,0.0,-999,0.00,,,0.00,,2013-07-29 08:12:00,
2013-07-29 03:22:00,55.0,-99.9,-100.00,SSE,168,0.0,0.0,-999,0.00,,,0.00,,2013-07-29 08:22:00,
2013-07-29 03:30:00,52.0,-99.9,-100.00,South,181,0.0,0.0,-999,0.00,,,0.00,,2013-07-29 08:30:00,
2013-07-29 03:33:00,53.0,-99.9,-100.00,SSE,167,0.0,0.0,-999,0.00,,,0.00,,2013-07-29 08:33:00,
2013-07-29 03:43:00,53.0,-99.9,-100.00,SSE,167,0.0,0.0,-999,0.00,,,0.00,,2013-07-29 08:43:00,
2013-07-29 03:52:00,53.0,-99.9,-100.00,SSE,167,0.0,0.0,-999,0.00,,,0.00,,2013-07-29 08:52:00,
2013-07-29 04:12:00,52.0,-99.9,-100.00,South,181,0.0,0.0,-999,0.00,,,0.00,,2013-07-29 09:12:00,
2013-07-29 04:22:00,52.0,-99.9,-100.00,South,181,0.0,0.0,-999,0.00,,,0.00,,2013-07-29 09:22:00,
2013-07-29 04:30:00,54.0,-99.9,-100.00,SE,143,0.0,2.0,-999,0.00,,,0.00,,2013-07-29 09:30:00,
2013-07-29 05:15:00,54.0,-99.9,-100.00,SE,143,0.0,2.0,-999,0.00,,,0.00,,2013-07-29 10:15:00,
2013-07-29 06:17:00,52.0,-99.9,-100.00,SSE,159,0.0,1.0,-999,0.00,,,0.00,,2013-07-29 11:17:00,
2013-07-29 06:27:00,52.0,-99.9,-100.00,SSE,159,0.0,1.0,-999,0.00,,,0.00,,2013-07-29 11:27:00,
2013-07-29 06:49:00,52.0,-99.9,-100.00,SE,124,0.0,1.0,-999,0.00,,,0.00,,2013-07-29 11:49:00,
2013-07-29 06:59:00,52.0,-99.9,-100.00,SE,124,0.0,1.0,-999,0.00,,,0.00,,2013-07-29 11:59:00,
2013-07-29 07:18:00,52.0,-99.9,-100.00,South,176,0.0,0.0,-999,0.00,,,0.00,,2013-07-29 12:18:00,
2013-07-29 07:28:00,52.0,-99.9,-100.00,South,176,0.0,0.0,-999,0.00,,,0.00,,2013-07-29 12:28:00,
2013-07-29 07:49:00,54.0,-99.9,-100.00,South,174,0.0,0.0,-999,0.00,,,0.00,,2013-07-29 12:49:00,
2013-07-29 08:19:00,57.0,-99.9,-100.00,South,177,0.0,1.0,-999,0.00,,,0.00,,2013-07-29 13:19:00,
2013-07-29 08:29:00,57.0,-99.9,-100.00,South,177,0.0,1.0,-999,0.00,,,0.00,,2013-07-29 13:29:00,
2013-07-29 08:47:00,59.0,-99.9,-100.00,South,171,0.0,0.0,-999,0.00,,,0.00,,2013-07-29 13:47:00,
2013-07-29 08:58:00,59.0,-99.9,-100.00,South,171,0.0,0.0,-999,0.00,,,0.00,,2013-07-29 13:58:00,
2013-07-29 09:14:00,62.0,-99.9,-100.00,South,172,0.0,0.0,-999,0.00,,,0.00,,2013-07-29 14:14:00,
2013-07-29 09:29:00,62.0,-99.9,-100.00,South,172,0.0,0.0,-999,0.00,,,0.00,,2013-07-29 14:29:00,
2013-07-29 09:48:00,64.0,-99.9,-100.00,SW,235,0.0,1.0,-999,0.00,,,0.00,,2013-07-29 14:48:00,
2013-07-29 09:58:00,64.0,-99.9,-100.00,SW,235,0.0,1.0,-999,0.00,,,0.00,,2013-07-29 14:58:00,
2013-07-29 10:17:00,68.0,-99.9,-100.00,NE,48,1.0,2.0,-999,0.00,,,0.00,,2013-07-29 15:17:00,
2013-07-29 10:25:00,68.0,-99.9,-100.00,NE,48,1.0,2.0,-999,0.00,,,0.00,,2013-07-29 15:25:00,
2013-07-29 10:47:00,70.0,-99.9,-100.00,North,4,0.0,1.0,-999,0.00,,,0.00,,2013-07-29 15:47:00,
2013-07-29 10:58:00,70.0,-99.9,-100.00,North,4,0.0,1.0,-999,0.00,,,0.00,,2013-07-29 15:58:00,
2013-07-29 11:08:00,71.0,-99.9,-100.00,NE,40,1.0,3.0,-999,0.00,,,0.00,,2013-07-29 16:08:00,
2013-07-29 11:26:00,71.0,-99.9,-100.00,NE,40,1.0,3.0,-999,0.00,,,0.00,,2013-07-29 16:26:00,
2013-07-29 11:43:00,73.0,-99.9,-100.00,NE,43,3.0,5.0,-999,0.00,,,0.00,,2013-07-29 16:43:00,
2013-07-29 11:49:00,73.0,-99.9,-100.00,NE,43,3.0,5.0,-999,0.00,,,0.00,,2013-07-29 16:49:00,
2013-07-29 11:59:00,73.0,-99.9,-100.00,NE,43,3.0,5.0,-999,0.00,,,0.00,,2013-07-29 16:59:00,
2013-07-29 12:00:00,72.0,-99.9,-100.00,NNW,338,1.0,3.0,-999,0.00,,,0.00,,2013-07-29 17:00:00,
2013-07-29 12:14:00,73.0,-99.9,-100.00,NNE,27,1.0,2.0,-999,0.00,,,0.00,,2013-07-29 17:14:00,
2013-07-29 12:46:00,72.0,-99.9,-100.00,NNW,338,1.0,3.0,-999,0.00,,,0.00,,2013-07-29 17:46:00,
2013-07-29 13:00:00,74.0,-99.9,-100.00,North,8,2.0,4.0,-999,0.00,,,0.00,,2013-07-29 18:00:00,
2013-07-29 13:08:00,75.0,-99.9,-100.00,NNE,13,3.0,5.0,-999,0.00,,,0.00,,2013-07-29 18:08:00,
2013-07-29 13:17:00,75.0,-99.9,-100.00,NNE,13,3.0,5.0,-999,0.00,,,0.00,,2013-07-29 18:17:00,
2013-07-29 13:28:00,75.0,-99.9,-100.00,NNE,13,3.0,5.0,-999,0.00,,,0.00,,2013-07-29 18:28:00,
2013-07-29 13:49:00,74.0,-99.9,-100.00,North,8,2.0,4.0,-999,0.00,,,0.00,,2013-07-29 18:49:00,
2013-07-29 14:00:00,75.0,-99.9,-100.00,South,173,0.0,1.0,-999,0.00,,,0.00,,2013-07-29 19:00:00,
2013-07-29 14:07:00,75.0,-99.9,-100.00,SSW,206,0.0,0.0,-999,0.00,,,0.00,,2013-07-29 19:07:00,
2013-07-29 14:17:00,75.0,-99.9,-100.00,SSW,206,0.0,0.0,-999,0.00,,,0.00,,2013-07-29 19:17:00,
2013-07-29 14:48:00,75.0,-99.9,-100.00,South,173,0.0,1.0,-999,0.00,,,0.00,,2013-07-29 19:48:00,
2013-07-29 15:17:00,75.0,-99.9,-100.00,South,170,1.0,2.0,-999,0.00,,,0.00,,2013-07-29 20:17:00,
2013-07-29 15:26:00,75.0,-99.9,-100.00,South,170,1.0,2.0,-999,0.00,,,0.00,,2013-07-29 20:26:00,
2013-07-29 15:59:00,75.0,-99.9,-100.00,SSE,162,1.0,5.0,-999,0.00,,,0.00,,2013-07-29 20:59:00,
2013-07-29 16:00:00,75.0,-99.9,-100.00,SSE,158,1.0,3.0,-999,0.00,,,0.00,,2013-07-29 21:00:00,
2013-07-29 16:09:00,76.0,-99.9,-100.00,SSE,158,1.0,2.0,-999,0.00,,,0.00,,2013-07-29 21:09:00,
2013-07-29 16:19:00,76.0,-99.9,-100.00,SSE,158,1.0,2.0,-999,0.00,,,0.00,,2013-07-29 21:19:00,
2013-07-29 16:26:00,76.0,-99.9,-100.00,SSE,158,1.0,2.0,-999,0.00,,,0.00,,2013-07-29 21:26:00,
2013-07-29 16:50:00,75.0,-99.9,-100.00,SSE,158,1.0,3.0,-999,0.00,,,0.00,,2013-07-29 21:50:00,
2013-07-29 17:18:00,76.0,-99.9,-100.00,SSE,155,1.0,2.0,-999,0.00,,,0.00,,2013-07-29 22:18:00,
2013-07-29 17:27:00,76.0,-99.9,-100.00,SSE,155,1.0,2.0,-999,0.00,,,0.00,,2013-07-29 22:27:00,
2013-07-29 17:48:00,76.0,-99.9,-100.00,SSE,151,1.0,2.0,-999,0.00,,,0.00,,2013-07-29 22:48:00,
2013-07-29 17:58:00,76.0,-99.9,-100.00,SSE,151,1.0,2.0,-999,0.00,,,0.00,,2013-07-29 22:58:00,
2013-07-29 18:16:00,75.0,-99.9,-100.00,SSE,159,2.0,4.0,-999,0.00,,,0.00,,2013-07-29 23:16:00,
2013-07-29 18:28:00,75.0,-99.9,-100.00,SSE,159,2.0,4.0,-999,0.00,,,0.00,,2013-07-29 23:28:00,
2013-07-29 18:49:00,76.0,-99.9,-100.00,SE,136,4.0,7.0,-999,0.00,,,0.00,,2013-07-29 23:49:00,
2013-07-29 18:59:00,76.0,-99.9,-100.00,SE,136,4.0,7.0,-999,0.00,,,0.00,,2013-07-29 23:59:00,
2013-07-29 19:09:00,76.0,-99.9,-100.00,SE,130,4.0,6.0,-999,0.00,,,0.00,,2013-07-30 00:09:00,
2013-07-29 19:19:00,76.0,-99.9,-100.00,SE,130,4.0,6.0,-999,0.00,,,0.00,,2013-07-30 00:19:00,
2013-07-29 19:29:00,76.0,-99.9,-100.00,SE,130,4.0,6.0,-999,0.00,,,0.00,,2013-07-30 00:29:00,
2013-07-29 19:53:00,76.0,-99.9,-100.00,SE,126,3.0,4.0,-999,0.00,,,0.00,,2013-07-30 00:53:00,
2013-07-29 19:58:00,76.0,-99.9,-100.00,SE,126,3.0,4.0,-999,0.00,,,0.00,,2013-07-30 00:58:00,
2013-07-29 20:00:00,73.0,-99.9,-100.00,East,83,3.0,4.0,-999,0.00,,,0.00,,2013-07-30 01:00:00,
2013-07-29 20:19:00,75.0,-99.9,-100.00,ESE,113,3.0,4.0,-999,0.00,,,0.00,,2013-07-30 01:19:00,
2013-07-29 20:24:00,75.0,-99.9,-100.00,ESE,113,3.0,4.0,-999,0.00,,,0.00,,2013-07-30 01:24:00,
2013-07-29 20:39:00,73.0,-99.9,-100.00,East,83,3.0,4.0,-999,0.00,,,0.00,,2013-07-30 01:39:00,
2013-07-29 20:47:00,73.0,-99.9,-100.00,East,83,3.0,4.0,-999,0.00,,,0.00,,2013-07-30 01:47:00,
2013-07-29 21:15:00,71.0,-99.9,-100.00,East,87,4.0,4.0,-999,0.00,,,0.00,,2013-07-30 02:15:00,
2013-07-29 21:27:00,71.0,-99.9,-100.00,East,87,4.0,4.0,-999,0.00,,,0.00,,2013-07-30 02:27:00,
2013-07-29 21:47:00,69.0,-99.9,-100.00,East,94,3.0,4.0,-999,0.00,,,0.00,,2013-07-30 02:47:00,
2013-07-29 21:57:00,69.0,-99.9,-100.00,East,94,3.0,4.0,-999,0.00,,,0.00,,2013-07-30 02:57:00,
2013-07-29 22:21:00,69.0,-99.9,-100.00,East,89,3.0,4.0,-999,0.00,,,0.00,,2013-07-30 03:21:00,
2013-07-29 22:28:00,69.0,-99.9,-100.00,East,89,3.0,4.0,-999,0.00,,,0.00,,2013-07-30 03:28:00,
2013-07-29 22:50:00,69.0,-99.9,-100.00,East,92,4.0,6.0,-999,0.00,,,0.00,,2013-07-30 03:50:00,
2013-07-29 22:57:00,69.0,-99.9,-100.00,East,92,4.0,6.0,-999,0.00,,,0.00,,2013-07-30 03:57:00,
2013-07-29 23:13:00,68.0,-99.9,-100.00,East,97,4.0,6.0,-999,0.00,,,0.00,,2013-07-30 04:13:00,
2013-07-29 23:23:00,68.0,-99.9,-100.00,East,97,4.0,6.0,-999,0.00,,,0.00,,2013-07-30 04:23:00,
2013-07-29 23:33:00,68.0,-99.9,-100.00,ESE,105,4.0,6.0,-999,0.00,,,0.00,,2013-07-30 04:33:00,
2013-07-29 23:43:00,68.0,-99.9,-100.00,ESE,105,4.0,6.0,-999,0.00,,,0.00,,2013-07-30 04:43:00,
2013-07-29 23:53:00,68.0,-99.9,-100.00,ESE,105,4.0,6.0,-999,0.00,,,0.00,,2013-07-30 04:53:00,